CUBESAT XI-V

Last updated on Sun Apr 12 2026 00:03:15 GMT+0000 (Coordinated Universal Time)

1 28895U 05043F 26101.40343051 .00001283 00000+0 21028-3 0 9993 2 28895 98.2898 255.6605 0015095 60.6727 299.5985 14.72457386 91920
UTC large
Height (km)
Speed (km/s)
/
Latitude / Longitude
Inclination (degrees)
Orbital Period (minutes)
Azimuth
Elevation
Range (km)
Doppler Factor

Next 0 passes for location: London (51.5072 / 0.1276)

Sorry there are no passes over London.
CUBESAT XI-V